Location: *
(57.8420°S, 159.8600°W)
Time: 03:56:26
(UTC+00:00)

Cosmos 1656 Rocket - Pass Details

Date: 18 May 2021
Orbit: 794 x 848 km, 71.1° (Epoch: 20 June)

Event Time Altitude Azimuth Distance (km) Brightness Sun altitude
Rises 05:58:01 0° 217° (SW) 3,375 7.4 -27.4°
Reaches altitude 10° 06:00:28 10° 219° (SW) 2,431 6.6 -27.7°
Maximum altitude 06:06:00 73° 301° (WNW) 855 3.7 -28.4°
Enters shadow 06:06:13 72° 322° (NW) 859 3.7 -28.5°
